{"data":{"norad_id":60196,"epoch":"2026-05-24T22:31:44.810112Z","epoch_age_seconds":90517,"freshness":"FRESH","line1":"1 60196U 24124P   26144.93871308  .00001501  00000+0  60094-4 0  9990","line2":"2 60196  53.1612 328.0542 0000850  80.8446 279.2651 15.31711474105977","mean_motion":15.31711474,"eccentricity":8.5e-5,"inclination_deg":53.1612,"raan_deg":328.0542,"arg_perigee_deg":80.8446,"mean_anomaly_deg":279.2651,"bstar":6.0094e-5,"rev_number":10597,"period_min":94.012483711407,"perigee_km":470.1236404049,"apogee_km":471.28794367954,"semimajor_km":6848.8427920422,"source":"CELESTRAK","updated_at":"2026-05-25T13:38:19.196185Z"}}